Flag for U.S.A. Weather past 2 weeks in Little Rock, Arkansas, U.S.A.

Now
74 °F

Mostly cloudy.


Feels Like: 75 °F
Forecast: 66 / 72 °F
Wind: 3 mph from East

Location: Adams Field

Current Time: Jul 31, 2014 at 3:03:55 PM

Latest Report: Jul 31, 2014 at 1:53 PM


Visibility: 10 mi

Pressure: 30.09 "Hg

Humidity: 74%

Dew point: 65 °F

Location of Little RockLocation

Historic Weather in Little Rock — Graph

°F

Little Rock temperature yesterday

Maximum temperature yesterday: 80 °F (at 10:53 AM)
Minimum temperature yesterday: 67 °F (at 6:53 AM)
Average temperature yesterday: 73 °F

Past Weeks' High & Low Weather Summary

 TemperatureHumidityPressure
High95 °F (Jul 27, 2:53 PM)94% (Jul 23, 5:58 PM)30.16 "Hg (Jul 23, 5:58 PM)
Low62 °F (Jul 18, 12:53 AM)36% (Jul 29, 5:53 PM)29.94 "Hg (Jul 26, 5:53 PM)
Average75 °F71%30.04 "Hg
* Reported Jul 16 1:53 PM — Jul 31 1:53 PM, Little Rock, Weather by CustomWeather, © 2014

Note: Actual official high and low records may vary slightly from our data, if they occured in-between our weather recording intervals... More about our weather records

Advertising

Little Rock weather history for previous 24 hours

 ConditionsComfort  
Time TempWeatherWind HumidityBarometerVisibility
1:53 PM
Jul 31
74 °FMostly cloudy.3 mph74%30.09 "Hg10 mi
12:53 PM74 °FMostly cloudy.6 mph74%30.10 "Hg10 mi
11:53 AM73 °FMostly cloudy.No wind74%30.10 "Hg10 mi
10:53 AM72 °FMostly cloudy.5 mph76%30.11 "Hg10 mi
9:53 AM70 °FMostly cloudy.7 mph84%30.11 "Hg10 mi
8:53 AM69 °FMostly cloudy.3 mph87%30.11 "Hg7 mi
7:53 AM68 °FFog.3 mph87%30.10 "Hg6 mi
6:53 AM68 °FMostly cloudy.No wind90%30.10 "Hg7 mi
5:53 AM67 °FLight rain. Mostly cloudy.No wind90%30.09 "Hg7 mi
4:53 AM67 °FLight rain. Fog.3 mph90%30.08 "Hg6 mi
3:53 AM67 °FMostly cloudy.No wind87%30.08 "Hg7 mi
2:53 AM67 °FLight rain. Mostly cloudy.No wind87%30.08 "Hg8 mi
1:53 AM69 °FLight rain. Mostly cloudy.No wind84%30.08 "Hg7 mi
12:53 AM70 °FLight rain. Mostly cloudy.No wind81%30.08 "Hg10 mi
11:53 PM
Jul 30
70 °FLight rain. Mostly cloudy.No wind81%30.07 "Hg10 mi
10:53 PM70 °FMostly cloudy.No wind84%30.07 "Hg10 mi
9:53 PM70 °FMostly cloudy.No wind84%30.07 "Hg10 mi
8:53 PM70 °FLight rain. Overcast.No wind79%30.07 "Hg10 mi
7:53 PM70 °FLight rain. Mostly cloudy.No wind79%30.08 "Hg7 mi
6:53 PM71 °FLight rain. More clouds than sun.No wind73%30.09 "Hg7 mi
5:53 PM72 °FLight rain. Overcast.5 mph76%30.09 "Hg7 mi
4:53 PM74 °FOvercast.7 mph64%30.10 "Hg10 mi
3:53 PM75 °FLight rain. Overcast.8 mph64%30.11 "Hg10 mi
Weather by CustomWeather, © 2014

See weather overviewHow to use our weather pages